DECAYED

DMSP 5D-2 F11 DEB, 28338 (Decayed)

Orbit data source: Space-Track

DMSP 5D-2 F11 DEB, 28338 was space debris in SSO originally from a launch on Thu, 28 Nov 1991 UTC launched from the Air Force Western Test Range (AFWTR). Debris objects in space refer to the collection of defunct objects orbiting the Earth. Examples of debris include non-operational satellites, rocket bodies, and fragments generated from explosions, collisions, or faulty payload assembly.

Not visible in the next 10 days
Identifier
28338, 1991-082BB
Orbit
Decayed
Country
Flag of USUS
Related business
Manufacturer
Unknown
Mission
Decayed spacecraft
Bus & Motor
Unknown
Mass
Unknown
Launch date (UTC)
1991-11-28 (34 years ago)
Launch vehicle
Unknown
Launch site
Air Force Western Test Range (AFWTR)
Object type
Payload
Rocket body
Debris
Shape & HBR
Unknown shape, 0.1 m
Radar Cross Section
Small (<0.1 m²)

Expand to show TLE details & history
Last TLE update: 4 months ago

TLE from 4 months ago
0 DMSP 5D-2 F11 DEB
1 28338U 91082BB  25242.29092801  .02731588  00000-0  19673-1 0  9991
2 28338  98.5092   8.1780 0023843 291.3827  68.4888 15.69835400114420
Epoch: 2025-08-30T06:58Z
TLE epoch observation values (Epoch: 2025-08-30T06:58:56.180Z)
Latitude
0.00005°
Longitude
-75.28343°
Altitude
356.632 km
Speed
7.699 km/s
True Right ascension
00h 32m 42s
True Declination
0° 00' 00"
Sunlit
Object was in full shadow at epoch
Visualization orbit readout
Latitude
Unknown
Longitude
Unknown
Altitude
Unknown
Speed
Unknown
Apparent Right ascension
Unknown
Apparent Declination
Unknown
Sunlit
N/A
Visualization observer readout
Local Sidereal Time
11:51:35
Azimuth
Unknown
Elevation
Unknown
Doppler factor
Unknown
Orbital elements
Apogee altitude
372.376 km
Perigee altitude
340.262 km
Semi-major axis
6,734.456 km
Eccentricity
0.00238
Inclination
98.5092°
RAAN
8.178°
Arg. of periapsis
291.3827°
True anomaly
68.74327°
Mean anomaly
68.4888°
Eccentric anomaly
68.61601°
Mean motion
3.92726 °/min
Orbital period
91.67 mins
BSTAR
0.019673
Loading maneuver chart data...
Computing Atmospheric mass density...

Documentation

Showing up to 5 results
|